Date String (YYYY-MM-DD hh:mm:ss) UTC,Instrument flags,absolute air pressure of the measurement (hPa),sample flow rate (lpm),inlet stack bypass flow (lpm),air temperature of the measurement (°C),ambient temperature measured by the external sensor (°C),aerosol sample conditioner tube jacket temperature (°C),OPC LED temperature (°C),internal box temperature (°C),relative humidity of the measurement (%),span deviation,mass concentration of particles derived from Lorenz-Mie calculation of OPC scattering (μg/m³),mass concentration of particles derived from Lorenz-Mie calculation of OPC scattering (μg/m³),mass concentration of particles derived from Lorenz-Mie calculation of OPC scattering (μg/m³)
DateTimeUTC,F1_M11,P_M11,Q1_M11,Q2_M11,T1_M11,T2_M11,T3_M11,T4_M11,T5_M11,U1_M11,ZSPAN_M11,X0_M11,X2_M11,X1_M11
2024-04-01 22:00:00,SystemResetWarning,0821.3,4.99,000.00,021.6,021.0,000.0,030.1,023.4,17.9,0000.0,0001.45,0000.86,0000.69
2024-04-01 22:01:00,SystemResetWarning,0821.3,5.00,000.00,021.6,021.0,000.0,030.1,023.5,16.8,0000.0,0001.32,0000.84,0000.68
2024-04-01 22:02:00,SystemResetWarning,0821.3,5.00,000.00,021.6,021.0,000.0,030.1,023.5,16.6,0000.0,0001.36,0000.86,0000.69
2024-04-01 22:03:00,SystemResetWarning,0821.3,5.00,000.00,021.6,021.0,000.0,030.1,023.5,17.6,0000.0,0001.38,0000.86,0000.68
2024-04-01 22:04:00,SystemResetWarning,0821.3,5.02,000.00,021.6,021.0,000.0,030.1,023.5,17.3,0000.0,0001.35,0000.84,0000.67
2024-04-01 22:05:00,SystemResetWarning,0821.3,5.01,000.00,021.6,021.0,000.0,030.1,023.5,16.6,0000.0,0001.40,0000.86,0000.66
2024-04-01 22:06:00,SystemResetWarning,0821.3,4.99,000.00,021.7,021.1,000.0,030.1,023.5,17.0,0000.0,0001.42,0000.87,0000.66
2024-04-01 22:07:00,SystemResetWarning,0821.3,4.99,000.00,021.7,021.1,000.0,030.1,023.5,17.2,0000.0,0001.46,0000.89,0000.67
2024-04-01 22:08:00,SystemResetWarning,0821.3,5.01,000.00,021.7,021.1,000.0,030.1,023.5,17.5,0000.0,0001.58,0000.91,0000.67
2024-04-01 22:09:00,SystemResetWarning,0821.3,5.01,000.00,021.7,021.1,000.0,030.1,023.5,17.9,0000.0,0001.57,0000.94,0000.68
2024-04-01 22:10:00,SystemResetWarning,0821.3,5.00,000.00,021.7,021.1,000.0,030.1,023.5,17.8,0000.0,0001.54,0000.93,0000.68
2024-04-01 22:11:00,SystemResetWarning,0821.3,4.99,000.00,021.7,021.1,000.0,030.1,023.5,17.8,0000.0,0001.49,0000.90,0000.67
2024-04-01 22:12:00,SystemResetWarning,0821.3,5.01,000.00,021.7,021.1,000.0,030.2,023.6,17.2,0000.0,0001.51,0000.91,0000.66
2024-04-01 22:13:00,SystemResetWarning,0821.3,5.01,000.00,021.7,021.1,000.0,030.2,023.6,16.2,0000.0,0001.53,0000.93,0000.67
2024-04-01 22:14:00,SystemResetWarning,0821.4,5.00,000.00,021.7,021.1,000.0,030.2,023.6,16.6,0000.0,0001.49,0000.92,0000.68
2024-04-01 22:15:00,SystemResetWarning,0821.4,5.00,000.00,021.7,021.1,000.0,030.2,023.6,17.7,0000.0,0001.50,0000.93,0000.68
2024-04-01 22:16:00,SystemResetWarning,0821.4,5.00,000.00,021.7,021.1,000.0,030.2,023.6,17.5,0000.0,0001.63,0000.95,0000.67
2024-04-01 22:17:00,SystemResetWarning,0821.9,5.00,000.00,021.8,021.2,000.0,030.2,023.6,17.7,0000.0,0001.75,0000.94,0000.67
2024-04-01 22:18:00,SystemResetWarning,0821.8,5.00,000.00,021.8,021.2,000.0,030.2,023.6,17.4,0000.0,0001.75,0000.93,0000.67
2024-04-01 22:19:00,SystemResetWarning,0822.0,5.00,000.00,021.8,021.2,000.0,030.2,023.6,17.0,0000.0,0001.75,0000.94,0000.67
2024-04-01 22:20:00,SystemResetWarning,0821.6,5.00,000.00,021.8,021.2,000.0,030.2,023.6,18.0,0000.0,0001.59,0000.90,0000.66
2024-04-01 22:21:00,SystemResetWarning,0821.6,5.00,000.00,021.8,021.2,000.0,030.2,023.6,17.3,0000.0,0001.54,0000.89,0000.65
2024-04-01 22:22:00,SystemResetWarning,0821.6,5.00,000.00,021.8,021.1,000.0,030.2,023.6,19.9,0000.0,0002.16,0000.92,0000.68
2024-04-01 22:23:00,SystemResetWarning,0821.7,5.00,000.00,021.8,021.1,000.0,030.2,023.6,23.2,0000.0,0004.18,0001.14,0000.84
2024-04-01 22:24:00,SystemResetWarning,0821.7,5.01,000.00,021.8,021.1,000.0,030.3,023.6,23.3,0000.0,0005.64,0001.33,0001.01
2024-04-01 22:25:00,SystemResetWarning,0821.6,5.01,000.00,021.8,021.1,000.0,030.3,023.6,23.5,0000.0,0005.99,0001.55,0001.20
2024-04-01 22:26:00,SystemResetWarning,0821.6,4.99,000.00,021.8,021.1,000.0,030.3,023.6,23.3,0000.0,0006.17,0001.73,0001.39
2024-04-01 22:27:00,SystemResetWarning,0821.6,5.00,000.00,021.8,021.1,000.0,030.3,023.6,23.4,0000.0,0006.33,0001.92,0001.58
2024-04-01 22:28:00,SystemResetWarning,0821.7,5.00,000.00,021.8,021.0,000.0,030.3,023.6,23.8,0000.0,0006.19,0002.04,0001.75
2024-04-01 22:29:00,SystemResetWarning,0821.7,5.00,000.00,021.8,021.0,000.0,030.3,023.5,24.0,0000.0,0006.86,0002.24,0001.94
2024-04-01 22:30:00,SystemResetWarning,0821.7,5.00,000.00,021.8,021.0,000.0,030.3,023.5,23.9,0000.0,0007.77,0002.46,0002.12
2024-04-01 22:31:00,SystemResetWarning,0821.7,4.99,000.00,021.7,021.0,000.0,030.3,023.5,23.4,0000.0,0007.98,0002.68,0002.32
2024-04-01 22:32:00,SystemResetWarning,0821.8,5.01,000.00,021.8,021.0,000.0,030.3,023.5,23.2,0000.0,0008.09,0002.85,0002.51
2024-04-01 22:33:00,SystemResetWarning,0821.8,5.02,000.00,021.8,021.0,000.0,030.3,023.5,23.9,0000.0,0008.16,0003.01,0002.66
2024-04-01 22:34:00,SystemResetWarning,0821.8,5.00,000.00,021.7,021.0,000.0,030.3,023.5,23.3,0000.0,0007.64,0003.02,0002.69
2024-04-01 22:35:00,SystemResetWarning,0821.9,4.98,000.00,021.7,021.0,000.0,030.3,023.5,23.2,0000.0,0006.80,0002.94,0002.63
2024-04-01 22:36:00,SystemResetWarning,0821.9,5.01,000.00,021.7,021.0,000.0,030.3,023.5,23.3,0000.0,0006.77,0002.82,0002.50
2024-04-01 22:37:00,SystemResetWarning,0821.9,5.01,000.00,021.7,021.0,000.0,030.3,023.5,23.6,0000.0,0006.61,0002.69,0002.37
2024-04-01 22:38:00,SystemResetWarning,0822.0,4.99,000.00,021.7,021.0,000.0,030.3,023.5,23.8,0000.0,0006.53,0002.56,0002.24
2024-04-01 22:39:00,SystemResetWarning,0822.0,4.99,000.00,021.7,021.0,000.0,030.3,023.5,23.4,0000.0,0006.41,0002.44,0002.12
2024-04-01 22:40:00,SystemResetWarning,0822.0,5.01,000.00,021.7,020.9,000.0,030.3,023.5,23.1,0000.0,0006.01,0002.30,0001.99
2024-04-01 22:41:00,SystemResetWarning,0822.1,5.01,000.00,021.7,020.9,000.0,030.3,023.5,23.3,0000.0,0004.70,0002.18,0001.88
2024-04-01 22:42:00,SystemResetWarning,0822.1,4.98,000.00,021.7,020.9,000.0,030.3,023.5,23.7,0000.0,0004.44,0002.08,0001.76
2024-04-01 22:43:00,SystemResetWarning,0822.1,5.01,000.00,021.7,020.9,000.0,030.3,023.5,23.7,0000.0,0004.42,0002.00,0001.64
2024-04-01 22:44:00,SystemResetWarning,0822.1,5.02,000.00,021.7,020.9,000.0,030.3,023.5,23.8,0000.0,0004.39,0001.93,0001.54
2024-04-01 22:45:00,SystemResetWarning,0822.1,5.00,000.00,021.7,020.9,000.0,030.3,023.5,24.3,0000.0,0003.83,0001.86,0001.44
2024-04-01 22:46:00,SystemResetWarning,0822.1,4.99,000.00,021.7,020.9,000.0,030.3,023.5,24.3,0000.0,0003.11,0001.78,0001.39
2024-04-01 22:47:00,SystemResetWarning,0822.1,5.00,000.00,021.7,020.9,000.0,030.3,023.5,24.6,0000.0,0003.31,0001.77,0001.37
2024-04-01 22:48:00,SystemResetWarning,0822.1,4.99,000.00,021.7,020.9,000.0,030.3,023.5,24.8,0000.0,0003.34,0001.77,0001.36
2024-04-01 22:49:00,SystemResetWarning,0822.2,5.01,000.00,021.7,020.8,000.0,030.3,023.5,24.5,0000.0,0003.43,0001.79,0001.36
2024-04-01 22:50:00,SystemResetWarning,0822.2,5.01,000.00,021.7,020.8,000.0,030.3,023.5,24.4,0000.0,0003.93,0001.78,0001.34
2024-04-01 22:51:00,SystemResetWarning,0822.3,5.01,000.00,021.7,020.8,000.0,030.3,023.5,24.5,0000.0,0004.19,0001.83,0001.34
2024-04-01 22:52:00,SystemResetWarning,0822.4,5.00,000.00,021.7,020.8,000.0,030.3,023.5,25.0,0000.0,0004.30,0001.83,0001.31
2024-04-01 22:53:00,SystemResetWarning,0822.4,5.01,000.00,021.7,020.8,000.0,030.3,023.5,25.1,0000.0,0004.25,0001.80,0001.30
2024-04-01 22:54:00,SystemResetWarning,0822.4,5.01,000.00,021.7,020.8,000.0,030.3,023.5,25.4,0000.0,0004.26,0001.80,0001.28
2024-04-01 22:55:00,SystemResetWarning,0822.4,5.00,000.00,021.7,020.8,000.0,030.2,023.5,25.5,0000.0,0004.39,0001.80,0001.27
2024-04-01 22:56:00,SystemResetWarning,0822.4,5.00,000.00,021.7,020.8,000.0,030.2,023.5,25.0,0000.0,0004.37,0001.78,0001.26
2024-04-01 22:57:00,SystemResetWarning,0822.4,4.99,000.00,021.7,020.8,000.0,030.2,023.5,24.9,0000.0,0004.31,0001.77,0001.23
2024-04-01 22:58:00,SystemResetWarning,0822.4,4.99,000.00,021.7,020.8,000.0,030.2,023.5,24.9,0000.0,0003.75,0001.76,0001.22
2024-04-01 22:59:00,SystemResetWarning,0822.4,5.00,000.00,021.7,020.8,000.0,030.2,023.5,24.8,0000.0,0003.70,0001.75,0001.22
